| time (UTC) | temp C | wind direction | speed KPH | gust KPH | rain 1hr cm | rain 24hr cm | rain mn cm | humidity % | barometer mb |
| 20260506061959 | 15 | 0.0 | 0.0 | 0.00 | 0.00 | 0.00 | 85 | 1016.3 | |
| 20260506060958 | 15 | 0.0 | 0.0 | 0.00 | 0.00 | 0.00 | 85 | 1016.1 | |
| 20260506051006 | 15 | 0.0 | 0.0 | 0.00 | 0.00 | 0.00 | 85 | 1015.8 | |
| 20260506044959 | 15 | 0.0 | 0.0 | 0.00 | 0.00 | 0.00 | 84 | 1015.7 | |
| 20260506043958 | 15 | 0.0 | 0.0 | 0.00 | 0.00 | 0.00 | 83 | 1015.6 | |
| 20260506043001 | 15 | 0.0 | 0.0 | 0.00 | 0.00 | 0.00 | 83 | 1015.4 | |
| 20260506042000 | 15 | 0.0 | 0.0 | 0.00 | 0.00 | 0.00 | 82 | 1015.4 | |
| 20260506041000 | 16 | 0.0 | 0.0 | 0.00 | 0.00 | 0.00 | 82 | 1015.3 | |
| 20260506040000 | 16 | 0.0 | 0.0 | 0.00 | 0.00 | 0.00 | 81 | 1015.2 | |
| 20260506034959 | 16 | 0.0 | 0.0 | 0.00 | 0.00 | 0.00 | 80 | 1015.0 | |
| 20260506034000 | 16 | 0.0 | 0.0 | 0.00 | 0.00 | 0.00 | 79 | 1014.9 | |
| 20260506031959 | 17 | 0.0 | 0.0 | 0.00 | 0.00 | 0.00 | 76 | 1014.7 | |
| 20260506030958 | 17 | 0.0 | 0.0 | 0.00 | 0.00 | 0.00 | 75 | 1014.6 | |
| 20260506030000 | 17 | 0.0 | 0.0 | 0.00 | 0.00 | 0.00 | 75 | 1014.6 | |
| 20260506024959 | 17 | 0.0 | 0.0 | 0.00 | 0.00 | 0.00 | 74 | 1014.6 | |
| 20260506021959 | 18 | 0.0 | 0.0 | 0.00 | 0.00 | 0.00 | 74 | 1014.4 | |
| 20260506020959 | 18 | 0.0 | 0.0 | 0.00 | 0.00 | 0.00 | 73 | 1014.5 | |
| 20260506015000 | 18 | 0.0 | 0.0 | 0.00 | 0.00 | 0.00 | 73 | 1014.4 | |
| 20260506013958 | 18 | 0.0 | 0.0 | 0.00 | 0.00 | 0.00 | 72 | 1014.5 | |
| 20260506013000 | 18 | 0.0 | 0.0 | 0.00 | 0.00 | 0.00 | 71 | 1014.5 | |
| 20260506011958 | 18 | 0.0 | 0.0 | 0.00 | 0.00 | 0.00 | 71 | 1014.5 | |
| 20260506011000 | 18 | 0.0 | 0.0 | 0.00 | 0.00 | 0.00 | 72 | 1014.5 | |
| 20260506010001 | 18 | 0.0 | 0.0 | 0.00 | 0.00 | 0.00 | 73 | 1014.4 | |
| 20260506004959 | 17 | 0.0 | 0.0 | 0.00 | 0.00 | 0.00 | 73 | 1014.5 | |
| 20260506003958 | 17 | 0.0 | 0.0 | 0.00 | 0.00 | 0.00 | 74 | 1014.7 | |
| 20260506003001 | 17 | 0.0 | 0.0 | 0.00 | 0.00 | 0.00 | 74 | 1014.6 | |
| 20260506001000 | 17 | 0.0 | 0.0 | 0.00 | 0.00 | 0.00 | 73 | 1014.8 | |
| 20260506000000 | 17 | 0.0 | 0.0 | 0.00 | 0.00 | 0.00 | 73 | 1014.8 | |
| 20260505234959 | 17 | 0.0 | 0.0 | 0.00 | 0.00 | 0.00 | 72 | 1014.9 | |
| 20260505232959 | 17 | 0.0 | 0.0 | 0.00 | 0.00 | 0.00 | 73 | 1014.9 | |
| 20260505230959 | 17 | 0.0 | 0.0 | 0.00 | 0.00 | 0.00 | 74 | 1015.1 | |
| 20260505230004 | 17 | 0.0 | 0.0 | 0.00 | 0.00 | 0.00 | 75 | 1015.2 | |
| 20260505224958 | 17 | 0.0 | 0.0 | 0.00 | 0.00 | 0.00 | 75 | 1015.2 | |
| 20260505223001 | 17 | 0.0 | 0.0 | 0.00 | 0.00 | 0.00 | 76 | 1015.4 | |
| 20260505221959 | 17 | 0.0 | 0.0 | 0.00 | 0.00 | 0.00 | 76 | 1015.5 | |
| 20260505220001 | 17 | 0.0 | 0.0 | 0.00 | 0.00 | 0.00 | 78 | 1015.5 | |
| 20260505215000 | 17 | 0.0 | 0.0 | 0.00 | 0.00 | 0.00 | 77 | 1015.5 | |
| 20260505214000 | 17 | 0.0 | 0.0 | 0.00 | 0.00 | 0.00 | 78 | 1015.6 | |
| 20260505211959 | 16 | 0.0 | 0.0 | 0.00 | 0.00 | 0.00 | 78 | 1015.6 | |
| 20260505210958 | 16 | 0.0 | 0.0 | 0.00 | 0.00 | 0.00 | 77 | 1015.7 | |
| 20260505210002 | 16 | 0.0 | 0.0 | 0.00 | 0.00 | 0.00 | 78 | 1015.7 | |
| 20260505205004 | 16 | 0.0 | 0.0 | 0.00 | 0.00 | 0.00 | 79 | 1015.8 | |
| 20260505204001 | 16 | 0.0 | 0.0 | 0.00 | 0.00 | 0.00 | 80 | 1015.8 | |
| 20260505203001 | 16 | 0.0 | 0.0 | 0.00 | 0.00 | 0.00 | 79 | 1015.9 | |
| 20260505195959 | 16 | 0.0 | 0.0 | 0.00 | 0.00 | 0.00 | 78 | 1015.9 | |
| 20260505194959 | 16 | 0.0 | 0.0 | 0.00 | 0.00 | 0.00 | 76 | 1015.9 | |
| 20260505194000 | 16 | 0.0 | 0.0 | 0.00 | 0.00 | 0.00 | 80 | 1016.0 | |
| 20260505193000 | 16 | 0.0 | 0.0 | 0.00 | 0.00 | 0.00 | 82 | 1016.0 | |
| 20260505191958 | 15 | 0.0 | 0.0 | 0.00 | 0.00 | 0.00 | 83 | 1016.1 | |
| 20260505190959 | 15 | 0.0 | 0.0 | 0.00 | 0.00 | 0.00 | 85 | 1016.1 | |
| 20260505183959 | 14 | 0.0 | 0.0 | 0.00 | 0.00 | 0.00 | 87 | 1016.1 | |
| 20260505183000 | 14 | 0.0 | 0.0 | 0.00 | 0.00 | 0.00 | 88 | 1016.1 | |
| 20260505181959 | 14 | 0.0 | 0.0 | 0.00 | 0.00 | 0.00 | 88 | 1016.1 | |
| 20260505180958 | 14 | 0.0 | 0.0 | 0.00 | 0.00 | 0.00 | 89 | 1016.0 | |
| 20260505175959 | 14 | 0.0 | 0.0 | 0.00 | 0.00 | 0.00 | 89 | 1016.0 | |
| 20260505174957 | 13 | 0.0 | 0.0 | 0.00 | 0.00 | 0.00 | 89 | 1016.0 | |
| 20260505173957 | 13 | 0.0 | 0.0 | 0.00 | 0.00 | 0.00 | 89 | 1016.0 | |
| 20260505172959 | 13 | 0.0 | 0.0 | 0.00 | 0.00 | 0.00 | 90 | 1015.9 | |
| 20260505171957 | 13 | 0.0 | 0.0 | 0.00 | 0.00 | 0.00 | 90 | 1015.8 | |
| 20260505170959 | 13 | 0.0 | 0.0 | 0.00 | 0.00 | 0.00 | 91 | 1015.7 | |
| 20260505165959 | 13 | 0.0 | 0.0 | 0.00 | 0.00 | 0.00 | 91 | 1015.7 | |
| 20260505164958 | 13 | 0.0 | 0.0 | 0.00 | 0.00 | 0.00 | 92 | 1015.6 | |
| 20260505163958 | 13 | 0.0 | 0.0 | 0.00 | 0.00 | 0.00 | 92 | 1015.7 | |
| 20260505162959 | 13 | 0.0 | 0.0 | 0.00 | 0.00 | 0.00 | 91 | 1015.5 | |
| 20260505161957 | 13 | 0.0 | 0.0 | 0.00 | 0.00 | 0.00 | 92 | 1015.6 | |
| 20260505151959 | 13 | 0.0 | 0.0 | 0.00 | 0.00 | 0.00 | 90 | 1015.5 | |
| 20260505150958 | 13 | 0.0 | 0.0 | 0.00 | 0.00 | 0.00 | 89 | 1015.4 | |
| 20260505124959 | 13 | 0.0 | 0.0 | 0.00 | 0.00 | 0.00 | 84 | 1014.4 | |
| 20260505123958 | 13 | 0.0 | 0.0 | 0.00 | 0.00 | 0.00 | 84 | 1014.3 | |
| 20260505122959 | 13 | 0.0 | 0.0 | 0.00 | 0.00 | 0.00 | 84 | 1014.3 | |
| 20260505121958 | 13 | 0.0 | 0.0 | 0.00 | 0.00 | 0.00 | 84 | 1014.3 | |
| 20260505120958 | 13 | 0.0 | 0.0 | 0.00 | 0.00 | 0.00 | 84 | 1014.3 | |
| 20260505115958 | 13 | 0.0 | 0.0 | 0.00 | 0.00 | 0.00 | 83 | 1014.3 | |
| 20260505113958 | 13 | 0.0 | 0.0 | 0.00 | 0.00 | 0.00 | 83 | 1014.2 | |
| 20260505111957 | 13 | 0.0 | 0.0 | 0.00 | 0.00 | 0.00 | 83 | 1014.2 | |
| 20260505095958 | 14 | 0.0 | 0.0 | 0.00 | 0.00 | 0.00 | 81 | 1013.7 | |
| 20260505094957 | 14 | 0.0 | 0.0 | 0.00 | 0.00 | 0.00 | 82 | 1013.8 | |
| 20260505093957 | 14 | 0.0 | 0.0 | 0.00 | 0.00 | 0.00 | 83 | 1013.7 | |
| 20260505092959 | 14 | 0.0 | 0.0 | 0.00 | 0.00 | 0.00 | 83 | 1013.5 | |
| 20260505090957 | 14 | 0.0 | 0.0 | 0.00 | 0.00 | 0.00 | 83 | 1013.4 | |
| 20260505090000 | 14 | 0.0 | 0.0 | 0.00 | 0.00 | 0.00 | 83 | 1013.2 | |
| 20260505084958 | 14 | 0.0 | 0.0 | 0.00 | 0.00 | 0.00 | 82 | 1013.3 | |
| 20260505083958 | 14 | 0.0 | 0.0 | 0.00 | 0.00 | 0.00 | 82 | 1013.2 | |
| 20260505081957 | 15 | 0.0 | 0.0 | 0.00 | 0.00 | 0.00 | 82 | 1013.2 | |
| 20260505080957 | 15 | 0.0 | 0.0 | 0.00 | 0.00 | 0.00 | 82 | 1013.1 | |
| 20260505080002 | 15 | 0.0 | 0.0 | 0.00 | 0.00 | 0.00 | 81 | 1013.0 | |
| 20260505074000 | 15 | 0.0 | 0.0 | 0.00 | 0.00 | 0.00 | 81 | 1012.7 | |
| 20260505073000 | 15 | 0.0 | 0.0 | 0.00 | 0.00 | 0.00 | 80 | 1012.7 | |
| 20260505072000 | 15 | 0.0 | 0.0 | 0.00 | 0.00 | 0.00 | 80 | 1012.5 | |
| 20260505070959 | 15 | 0.0 | 0.0 | 0.00 | 0.00 | 0.00 | 80 | 1012.4 |